Showing default

GONETS M 20, 47227

Orbit data source: Space-Track

GONETS M 20, 47227 is a payload satellite owned by Gonets (CIS) in LEO that was launched on Thu, 03 Dec 2020 UTC via a SOYUZ-2-1B launch vehicle from the Plesetsk Missile And Space Complex (PKMTR). Payload-class satellites include a variety of spacecraft equipped with specific instruments for various scientific and technological missions. These include communications satellites like Starlink; space stations such as the ISS; scientific satellites like the Hubble; Earth observation satellites from companies like Planet Labs, Umbra, and HawkEye 360; GPS; miniature CubeSats for education and research; and military/defense satellites.

Loading next visibility...
Identifier
47227, 2020-091A
Orbit
LEO
Country
Flag of CISCIS
Related business
Manufacturer
Resehetnev ISS
Mission
Operational Commercial Communications
Bus & Motor
STRELA-3M, Unknown motor
Mass
225 kg wet, 225 kg dry
Launch date (UTC)
2020-12-03 (6 years ago)
Launch vehicle
SOYUZ-2-1B
Launch site
Plesetsk Missile And Space Complex (PKMTR)
Object type
Payload
Rocket body
Debris
Shape & HBR
Cyl + 1 Ant, 3.5 m
Radar Cross Section
1.798 m², Large (>1 m²)

Expand to show TLE details & history
Last TLE update: 22 hours ago

TLE from 22 hours ago
0 GONETS M 20
1 47227U 20091A   26172.51386189 -.00000020  00000-0 -21351-3 0  9992
2 47227  82.5052 299.7464 0021420 168.5716 191.5854 12.42893542251618
Epoch: 2026-06-21T12:19Z
TLE epoch observation values (Epoch: 2026-06-21T12:19:57.667Z)
Latitude
-0.00004°
Longitude
-154.95693°
Altitude
1,513.584 km
Speed
7.101 km/s
True Right ascension
19h 58m 59s
True Declination
0° 00' 00"
Sunlit
Object was in full shadow at epoch
Visualization orbit readout
Latitude
Unknown
Longitude
Unknown
Altitude
Unknown
Speed
Unknown
Apparent Right ascension
Unknown
Apparent Declination
Unknown
Sunlit
N/A
Visualization observer readout
Local Sidereal Time
21:29:50
Azimuth
Unknown
Elevation
Unknown
Doppler factor
Unknown
Orbital elements
Apogee altitude
1,508.569 km
Perigee altitude
1,474.855 km
Semi-major axis
7,869.849 km
Eccentricity
0.00214
Inclination
82.5052°
RAAN
299.7464°
Arg. of periapsis
168.5716°
True anomaly
191.53623°
Mean anomaly
191.5854°
Eccentric anomaly
191.5608°
Mean motion
3.10881 °/min
Orbital period
115.8 mins
BSTAR
-0.00021351
Loading maneuver chart data...
Computing Atmospheric mass density...
Loading historical data...
Loading historical data...
Loading historical data...
Loading historical data...
Loading historical data...
Loading historical data...
Loading historical data...
Other satellites on launch #91 in the year 2020 (2020-12-03 UTC)

Documentation

Showing up to 5 results
|